Regional Weather Roundup
Issued by NWS Kansas City/Pleasant Hill, MO

Home | Current Version | Previous Version | Graphics & Text | Print | Product List | Glossary Off
Versions: 1 2 3 4 5 6 7 8 9 10 11 12 13 14 15 16 17 18 19 20 21 22 23 24 25 26 27

000
ASUS43 KEAX 250510
RWREAX

WEATHER ROUNDUP FOR EASTERN KANSAS AND NORTHWEST MISSOURI
NATIONAL WEATHER SERVICE KANSAS CITY/PLEASANT HILL MO
1200 AM CDT SUN SEP 25 2016

KSZ040-057-103>105-MOZ028-029-037-043-250600-
...KANSAS CITY METROPOLITAN AREA...

CITY           SKY/WX    TMP DP  RH WIND       PRES   REMARKS
K.C. INTL      TSTM      69  66  90 W7        30.04R FOG
K.C. DOWNTOWN  CLOUDY    73  67  81 W9G18     30.03R
LEES SUMMIT    MOCLDY    77  69  76 S12       29.99F
OLATHE - IXD   CLOUDY    69  68  96 NW7       30.03R
OLATHE - OJC   CLOUDY    69  67  93 NW8       30.03R
LAWRENCE       LGT RAIN  68  68 100 CALM      30.01F FOG

$$

MOZ001>008-011>017-020>025-030>033-038>040-044>046-053-054-250600-
...NORTHERN AND CENTRAL MISSOURI...

CITY           SKY/WX    TMP DP  RH WIND       PRES   REMARKS
ST. JOSEPH     TSTM      69  67  93 SE5       30.02R
MOSBY          CLOUDY    70  68  94 W6        30.00R
WHITEMAN AFB   CLOUDY    75  72  91 S8        29.99F
CLINTON        CLOUDY    77  70  78 CALM      30.00F
SEDALIA        PTCLDY    75  69  81 SE7       30.02F
WARSAW         NOT AVBL
CHILLICOTHE      N/A     76  71  85 CALM      30.01S
KIRKSVILLE     CLOUDY    75  67  76 S10       30.03F

$$

MOZ041-047>049-056>058-063>065-088>090-097-250600-
...EASTERN AND SOUTHERN MISSOURI...

CITY           SKY/WX    TMP DP  RH WIND       PRES   REMARKS
ST. LOUIS INTL PTCLDY    77  67  71 E5        30.07R
SPIRIT OF STL  CLEAR     70  69  97 CALM      30.05R FOG
COLUMBIA       CLEAR     74  69  85 SE6       30.05S
JEFFERSON CITY CLEAR     73  69  87 CALM      30.03S
ROLLA          CLEAR     72  67  84 SE5       30.06S
OSAGE BEACH    CLEAR     72  69  90 SE3       30.05S
SPRINGFIELD    CLEAR     76  66  71 S8        30.04S
BRANSON        CLEAR     73  68  83 SE6       30.07S
JOPLIN         MOCLDY    75  68  78 S6          N/A
WEST PLAINS    CLEAR     72  66  81 CALM      30.09F

$$

IAZ060-094-KSZ022-034>040-054-083-096-NEZ052-066-093-250600-
...KANSAS...SOUTHEAST NEBRASKA AND IOWA...

CITY           SKY/WX    TMP DP  RH WIND       PRES   REMARKS
TOPEKA         LGT RAIN  68  67  96 E8        29.99S
MANHATTAN      MOCLDY    69  68  96 SW6       29.99R
EMPORIA        CLOUDY    68  66  93 SE8       30.01R
CHANUTE        LGT RAIN  68  66  93 W7        30.07R
WICHITA        CLOUDY    67  66  97 S3        30.00R
OMAHA          CLOUDY    70  66  87 SE7       29.96F
LINCOLN        CLOUDY    70  68  93 S6        29.96F
FALLS CITY     RAIN      70  70 100 SE3       29.96F
LAMONI         LGT RAIN  70  69  97 VRB3      30.03R
DES MOINES     CLOUDY    69  67  93 SE6       30.00F THUNDER

$$





USA.gov is the U.S. government's official web portal to all federal, state and local government web resources and services.